Date,TemperatureHighF,TemperatureAvgF,TemperatureLowF,DewpointHighF,DewpointAvgF,DewpointLowF,HumidityHigh,HumidityAvg,HumidityLow,PressureMaxIn,PressureMinIn,WindSpeedMaxMPH,WindSpeedAvgMPH,GustSpeedMaxMPH,PrecipitationSumIn
2013-1-1,52.6,42.1,33.4,39.3,35.6,30.5,89,79,58,30.37,30.29,4,0,10,0.00
2013-1-2,57.4,40.1,29.3,39.6,32.5,26.2,89,77,44,30.35,30.21,1,0,3,0.01
2013-1-3,56.1,40.7,29.8,40.9,33.9,26.7,95,78,45,30.36,30.26,1,0,3,0.00
2013-1-4,57.5,43.0,33.7,40.9,35.5,30.3,89,77,47,30.39,30.25,1,0,3,0.01
2013-1-5,56.0,46.2,35.5,48.3,41.6,32.3,89,84,69,30.35,30.15,2,0,5,0.07
2013-1-6,49.9,45.6,38.3,45.4,41.9,34.8,90,87,82,30.29,30.13,1,0,4,0.11
2013-1-7,58.4,45.2,34.7,49.3,40.5,31.2,90,84,68,30.36,30.23,1,0,3,0.00
2013-1-8,61.8,48.0,39.3,49.4,42.0,35.8,92,81,60,30.33,30.20,1,0,3,0.00
2013-1-9,56.6,45.7,39.5,49.7,41.5,35.9,92,85,74,30.24,30.09,1,0,3,0.02
2013-1-10,52.9,42.9,36.7,39.8,36.0,33.5,89,77,55,30.30,30.17,4,0,6,0.00
2013-1-11,53.7,42.1,32.4,40.8,35.6,29.5,89,79,54,30.37,30.21,2,0,6,0.00
2013-1-12,50.5,38.6,31.1,36.1,28.9,21.8,89,72,34,30.36,30.22,1,0,3,0.00
2013-1-13,50.1,36.3,26.4,30.7,26.6,21.1,89,72,32,30.39,30.26,2,0,5,0.00
2013-1-14,50.2,37.4,26.6,28.0,23.4,18.6,87,61,30,30.52,30.33,1,0,3,0.00
2013-1-15,55.1,39.4,27.4,33.0,28.4,24.3,89,68,35,30.59,30.48,2,0,3,0.00
2013-1-16,57.3,40.7,28.9,36.9,31.1,26.1,89,72,38,30.53,30.35,1,0,3,0.00
2013-1-17,62.2,43.3,30.6,41.3,33.9,27.5,89,73,41,30.36,30.21,1,0,3,0.00
2013-1-18,64.1,45.5,32.8,43.0,35.8,29.6,89,72,40,30.32,30.19,1,0,3,0.00
2013-1-19,63.5,44.3,31.4,43.1,35.7,28.3,94,75,42,30.34,30.22,1,0,4,0.00
2013-1-20,64.8,45.0,31.9,40.7,34.6,28.8,89,71,33,30.33,30.19,2,0,5,0.00
2013-1-21,63.7,45.0,31.1,43.2,35.3,28.0,92,72,36,30.27,30.15,2,0,3,0.00
2013-1-22,63.1,47.1,33.5,44.4,38.2,30.3,88,74,42,30.20,30.07,1,0,3,0.00
2013-1-23,54.2,49.5,45.5,49.5,45.4,41.2,89,86,77,30.16,30.04,1,0,1,0.06
2013-1-24,57.2,53.2,50.1,52.6,49.2,45.9,89,86,82,30.27,30.14,0,0,1,0.01
2013-1-25,65.4,56.6,51.2,57.0,51.8,48.0,89,84,72,30.27,30.12,2,0,3,0.03
2013-1-26,60.5,50.0,41.9,47.9,42.9,38.5,89,78,49,30.19,30.09,2,0,6,0.00
2013-1-27,56.2,46.8,38.5,41.1,38.0,30.6,89,74,38,30.27,30.18,3,0,5,0.00
2013-1-28,58.4,47.3,38.3,43.7,40.1,35.1,92,77,52,30.39,30.26,3,0,6,0.00
2013-1-29,58.4,47.1,38.8,45.4,40.3,35.7,92,78,54,30.45,30.34,2,0,6,0.00
2013-1-30,68.1,50.3,38.2,46.2,40.1,34.7,89,72,40,30.43,30.32,2,0,3,0.00
2013-1-31,64.8,48.4,36.2,48.7,40.7,32.9,89,77,50,30.38,30.24,2,0,4,0.00
2013-2-1,67.2,50.7,37.3,49.8,42.4,34.0,89,75,47,30.30,30.18,1,0,3,0.00
2013-2-2,58.0,49.2,42.6,50.2,44.7,39.3,92,85,74,30.38,30.29,1,0,3,0.00
2013-2-3,59.3,48.7,40.5,46.2,42.3,37.2,89,79,59,30.34,30.21,3,0,5,0.00
2013-2-4,57.0,46.8,38.4,49.4,42.5,35.0,92,85,74,30.28,30.15,2,0,4,0.00
2013-2-5,57.4,49.5,40.1,47.6,43.6,37.1,89,81,66,30.25,30.16,2,0,4,0.00
2013-2-6,59.2,45.6,34.8,45.0,38.7,31.5,89,78,56,30.29,30.20,3,0,6,0.00
2013-2-7,59.0,44.7,35.1,47.7,38.2,32.2,92,80,48,30.28,30.09,2,0,5,0.07
2013-2-8,54.0,44.3,37.8,42.7,38.0,34.0,89,80,57,30.11,30.04,3,0,5,0.03
2013-2-9,58.9,43.9,31.8,37.7,31.9,28.4,95,67,32,30.18,30.08,2,0,6,0.00
2013-2-10,60.3,44.0,30.2,39.3,33.7,27.4,89,70,40,30.23,30.09,2,0,5,0.00
2013-2-11,63.4,46.7,32.7,39.3,33.1,29.7,92,65,28,30.32,30.15,3,0,6,0.00
2013-2-12,61.7,46.4,34.1,43.8,37.8,30.9,89,74,42,30.45,30.32,2,0,4,0.00
2013-2-13,64.4,47.9,34.4,47.5,39.6,31.2,89,75,43,30.43,30.28,2,0,4,0.00
2013-2-14,69.0,52.3,37.6,45.8,40.3,34.4,89,68,38,30.34,30.21,2,0,4,0.00
2013-2-15,72.7,53.7,38.5,46.3,41.5,35.5,92,67,35,30.35,30.25,2,0,4,0.00
2013-2-16,70.0,52.9,40.9,50.4,43.9,37.6,89,74,45,30.30,30.11,2,0,5,0.00
2013-2-17,65.3,50.6,40.3,47.6,42.7,37.0,89,76,48,30.15,30.03,3,0,5,0.00
2013-2-18,54.5,46.4,38.3,44.1,39.3,35.1,89,77,57,30.14,30.06,1,0,4,0.00
2013-2-19,50.1,44.2,37.7,44.3,39.4,34.3,88,83,70,30.07,29.85,4,0,11,0.23
2013-2-20,60.2,44.9,32.3,41.3,36.2,29.2,89,74,38,30.16,29.93,3,0,7,0.00
2013-2-21,60.1,46.9,37.1,41.8,36.3,33.3,89,70,38,30.26,30.15,3,0,6,0.00
2013-2-22,63.8,48.1,33.2,43.0,37.1,30.2,89,69,38,30.34,30.25,3,0,5,0.00
2013-2-23,59.6,50.2,42.0,46.2,39.9,35.3,88,70,43,30.34,30.23,4,1,10,0.00
2013-2-24,63.1,49.3,35.9,35.8,32.0,26.7,84,56,26,30.35,30.23,2,0,5,0.00
2013-2-25,63.2,48.2,34.8,45.3,38.8,31.6,89,72,46,30.37,30.24,4,0,9,0.00
2013-2-26,67.8,50.0,34.8,41.5,33.5,29.0,89,59,24,30.30,30.19,2,0,5,0.00
2013-2-27,68.1,50.8,34.4,45.9,38.8,31.2,89,67,33,30.45,30.29,2,0,4,0.00
2013-2-28,68.7,54.2,41.5,52.6,46.7,38.2,88,77,53,30.53,30.44,4,1,6,0.00
2013-3-1,72.8,57.3,46.5,54.1,48.3,42.6,89,74,47,30.51,30.29,2,0,4,0.00
2013-3-2,71.0,57.6,47.0,54.9,49.2,43.6,88,75,52,30.32,30.12,2,0,4,0.00
2013-3-3,67.2,55.5,46.4,51.9,47.4,42.4,88,76,46,30.19,30.10,3,0,9,0.00
2013-3-4,58.2,50.0,41.5,47.1,43.1,37.9,88,78,62,30.23,30.13,4,0,6,0.00
2013-3-5,63.5,51.2,40.8,45.7,41.7,37.5,88,72,49,30.16,29.93,3,1,13,0.08
2013-3-6,59.0,50.9,39.9,46.8,42.4,36.4,87,74,50,30.15,29.94,3,1,7,0.11
2013-3-7,60.9,48.1,38.6,44.6,39.9,35.5,89,75,40,30.08,29.92,2,0,4,0.26
2013-3-8,63.3,50.7,44.2,47.7,42.8,39.7,89,75,50,30.16,29.91,2,0,6,0.09
2013-3-9,67.4,52.2,39.7,45.4,40.1,36.4,88,67,35,30.38,30.16,3,0,6,0.00
2013-3-10,71.2,53.2,37.3,48.5,39.9,34.1,89,66,29,30.43,30.30,2,0,4,0.00
2013-3-11,74.6,54.7,38.8,50.4,43.4,35.6,92,70,33,30.34,30.17,3,0,6,0.00
2013-3-12,73.0,56.6,44.0,53.4,47.8,40.7,92,74,45,30.23,30.11,3,0,4,0.00
2013-3-13,76.3,58.9,43.3,56.3,49.1,39.7,92,73,44,30.24,30.11,3,0,5,0.00
2013-3-14,72.2,57.8,46.0,54.9,48.0,39.3,88,72,34,30.24,30.16,3,0,4,0.00
2013-3-15,73.4,55.7,42.7,53.0,46.4,39.2,92,73,37,30.21,30.11,3,0,5,0.00
2013-3-16,72.4,57.6,47.5,53.8,46.5,38.3,88,69,32,30.19,30.09,3,0,9,0.00
2013-3-17,68.2,55.4,41.1,47.4,42.2,37.5,88,64,36,30.23,30.11,3,0,7,0.00
2013-3-18,65.2,53.4,40.5,50.6,44.3,37.2,88,72,54,30.20,30.09,2,0,3,0.00
2013-3-19,70.6,55.1,43.7,48.2,44.6,36.2,88,70,39,30.20,30.13,3,0,5,0.05
2013-3-20,67.7,57.3,50.4,56.5,50.7,46.5,88,79,56,30.21,30.14,3,0,6,0.04
2013-3-21,66.0,54.1,43.8,50.0,43.1,39.5,86,68,42,30.21,30.07,2,0,7,0.00
2013-3-22,69.9,53.5,39.6,42.7,35.2,28.9,88,57,23,30.19,30.08,3,0,7,0.00
2013-3-23,69.2,53.7,37.9,44.5,36.6,28.3,88,58,24,30.23,30.09,2,0,4,0.00
2013-3-24,69.6,54.4,40.6,51.3,44.6,37.3,88,72,46,30.17,30.02,3,1,6,0.00
2013-3-25,60.7,50.8,41.1,47.7,43.1,37.5,88,76,59,30.11,30.01,3,1,5,0.00
2013-3-26,64.7,54.0,43.5,49.8,44.7,40.1,88,72,55,30.09,29.99,3,1,6,0.00
2013-3-27,68.2,57.1,47.0,54.8,49.4,43.4,88,77,57,30.08,30.01,2,0,6,0.00
2013-3-28,73.1,60.7,54.2,56.7,53.3,50.4,88,77,54,30.15,30.07,3,0,7,0.00
2013-3-29,77.5,61.7,49.2,56.9,51.9,45.5,88,72,47,30.16,30.05,3,0,5,0.00
2013-3-30,71.7,60.7,54.2,57.0,53.2,50.4,88,77,52,30.14,30.02,3,0,6,0.03
2013-3-31,70.1,60.1,51.2,55.3,51.1,47.2,88,73,49,30.13,30.05,3,0,7,0.06
2013-4-1,69.4,59.2,51.0,55.4,51.7,47.0,88,77,57,30.23,30.11,2,0,5,0.20
2013-4-2,69.2,56.0,44.6,55.4,48.9,41.0,89,78,58,30.26,30.14,3,0,6,0.00
2013-4-3,76.9,59.6,51.1,55.6,50.4,47.4,88,74,43,30.22,30.03,2,0,5,0.00
2013-4-4,68.8,58.9,52.8,57.9,52.9,49.0,88,81,62,30.19,30.07,2,0,5,0.19
2013-4-5,68.6,59.4,51.3,54.3,51.2,47.5,88,75,56,30.26,30.18,2,0,8,0.00
2013-4-6,69.6,57.6,50.5,55.3,50.3,46.7,88,77,58,30.26,30.20,3,0,5,0.00
2013-4-7,68.3,57.4,49.6,55.5,49.5,45.4,88,76,55,30.25,29.95,4,1,11,0.04
2013-4-8,67.8,55.6,47.2,49.4,40.8,34.1,88,60,34,30.09,29.92,6,1,15,0.00
2013-4-9,74.3,60.6,47.1,43.2,40.8,37.4,80,52,29,30.15,30.07,5,1,11,0.00
2013-4-10,86.6,66.1,47.6,52.8,47.6,42.3,82,56,29,30.23,30.10,4,1,10,0.00
2013-4-11,72.7,60.3,48.8,52.4,46.8,42.5,83,63,36,30.15,29.91,3,0,5,0.00
2013-4-12,73.5,58.3,43.4,55.3,47.1,40.1,88,68,41,30.00,29.89,3,1,6,0.00
2013-4-13,71.5,56.6,44.6,52.4,44.6,39.8,92,66,40,29.99,29.91,4,1,9,0.00
2013-4-14,71.3,55.2,39.9,47.1,41.5,36.4,92,64,33,30.01,29.93,4,1,10,0.00
2013-4-15,61.8,52.1,43.3,47.7,40.2,34.8,86,65,45,30.04,29.94,3,1,14,0.00
2013-4-16,67.9,53.3,36.6,40.6,35.7,30.9,88,56,26,30.22,30.04,3,1,7,0.00
2013-4-17,69.7,57.6,45.2,38.6,35.3,30.1,70,46,24,30.33,30.21,5,1,11,0.00
2013-4-18,77.7,59.9,40.1,46.7,39.2,34.9,85,52,25,30.34,30.23,2,0,5,0.00
2013-4-19,80.0,62.9,45.0,55.2,47.5,41.4,88,61,35,30.30,30.13,3,0,5,0.00
2013-4-20,81.8,63.9,46.3,50.3,46.7,42.3,87,58,29,30.18,30.03,3,0,14,0.00
2013-4-21,85.8,66.6,46.9,55.5,47.9,43.1,88,58,24,30.11,29.97,2,0,5,0.00
2013-4-22,88.5,69.7,50.1,56.9,47.9,39.8,85,52,19,30.03,29.88,3,0,6,0.00
2013-4-23,83.4,64.7,49.7,54.2,44.9,32.5,84,56,19,30.00,29.91,4,1,7,0.00
2013-4-24,68.5,58.2,46.6,53.9,49.1,42.9,87,73,56,30.02,29.89,3,1,7,0.00
2013-4-25,68.4,58.3,47.6,54.0,49.3,43.9,88,73,54,30.20,30.02,4,1,9,0.00
2013-4-26,68.1,57.7,48.3,53.4,49.0,44.4,87,73,58,30.30,30.20,3,1,10,0.00
2013-4-27,71.7,57.9,46.2,55.3,49.6,42.5,88,75,55,30.30,30.16,2,1,6,0.00
2013-4-28,82.6,63.4,47.3,58.4,51.7,43.6,88,68,42,30.16,29.93,3,0,5,0.00
2013-4-29,90.2,71.7,53.5,60.3,52.3,47.2,87,56,27,29.96,29.80,3,1,7,0.00
2013-4-30,83.0,66.6,51.3,54.6,48.3,42.3,87,57,25,29.92,29.83,3,1,5,0.00
2013-5-1,84.7,69.1,49.9,50.5,40.0,31.0,68,40,15,30.14,29.91,2,0,6,0.00
2013-5-2,92.4,70.0,50.3,49.8,43.2,35.1,84,46,17,30.21,30.12,3,0,5,0.00
2013-5-3,90.4,70.8,49.8,53.9,43.5,36.2,70,43,16,30.15,29.85,3,1,4,0.00
2013-5-4,88.8,68.9,51.7,58.9,49.8,43.2,81,55,25,29.85,29.60,3,0,5,0.00
2013-5-5,73.2,62.6,54.6,51.8,48.3,45.3,72,60,42,29.87,29.66,5,1,13,0.00
2013-5-6,72.6,62.7,51.1,53.2,50.0,46.7,86,64,45,30.02,29.87,2,0,5,0.00
2013-5-7,73.8,63.0,52.8,55.5,51.2,46.4,85,67,47,30.11,30.01,2,0,4,0.00
2013-5-8,67.9,58.7,51.5,54.1,50.5,47.1,87,75,57,30.23,30.11,3,1,7,0.00
2013-5-9,69.9,59.0,51.3,53.6,49.6,46.8,86,72,53,30.26,30.15,4,1,6,0.00
2013-5-10,69.2,59.5,51.1,56.3,51.5,46.7,86,75,62,30.27,30.17,3,1,4,0.00
2013-5-11,81.5,64.9,54.0,60.4,54.4,49.9,87,71,46,30.23,30.09,2,0,5,0.00
2013-5-12,81.9,66.5,50.9,62.1,53.4,46.4,87,66,35,30.21,30.09,3,1,5,0.00
2013-5-13,77.3,63.7,49.9,60.0,52.2,46.2,87,68,45,30.17,30.02,4,1,6,0.00
2013-5-14,78.6,63.5,52.1,56.5,49.7,44.2,86,63,38,30.10,30.00,3,0,5,0.00
2013-5-15,74.3,60.1,47.0,50.4,46.2,42.5,85,63,35,30.14,30.09,3,0,5,0.00
2013-5-16,73.9,60.5,52.6,56.7,50.7,47.4,85,72,43,30.12,30.04,5,1,9,0.01
2013-5-17,72.8,58.7,47.1,49.1,45.9,43.3,87,65,39,30.17,30.07,4,1,9,0.00
2013-5-18,74.2,55.2,44.9,54.0,46.0,41.3,88,73,42,30.21,30.16,2,0,4,0.00
2013-5-19,82.2,71.7,57.8,51.8,46.7,42.0,72,44,28,30.09,30.02,2,1,4,0.00
2013-5-20,91.4,70.0,49.9,55.8,46.5,38.1,87,51,16,30.07,29.97,3,0,5,0.00
2013-5-21,76.7,61.6,52.2,53.1,46.2,38.1,84,60,28,30.07,29.99,3,0,6,0.00
2013-5-22,69.1,55.9,45.2,41.3,37.7,30.0,79,53,25,30.10,30.00,3,1,6,0.00
2013-5-23,69.6,56.7,45.2,47.0,42.2,39.1,83,60,41,30.08,30.01,3,0,7,0.00
2013-5-24,72.8,56.4,42.5,49.8,43.4,38.8,87,64,36,30.08,30.02,4,1,7,0.00
2013-5-25,71.0,57.6,46.0,47.9,45.4,41.9,87,66,42,30.15,30.06,3,1,12,0.00
2013-5-26,74.7,62.5,51.4,54.7,51.2,46.5,85,68,44,30.22,30.13,3,1,5,0.00
2013-5-27,68.9,60.7,49.8,56.1,52.1,46.0,87,74,58,30.22,30.07,2,0,6,0.02
2013-5-28,74.1,63.1,55.8,58.6,53.5,47.6,87,72,47,30.07,29.99,3,1,7,0.00
2013-5-29,72.9,62.3,52.3,57.1,50.3,44.0,77,66,48,30.04,29.98,4,1,9,0.00
2013-5-30,78.7,61.9,45.8,52.3,45.2,40.1,87,58,31,30.06,30.01,3,1,8,0.00
2013-5-31,88.4,68.3,47.1,55.8,48.8,43.1,87,56,24,30.09,29.95,3,0,5,0.00
2013-6-1,90.7,71.9,53.1,61.0,54.3,49.0,87,58,28,30.00,29.82,2,0,5,0.00
2013-6-2,77.1,65.4,55.0,58.1,54.2,50.4,86,68,50,29.85,29.73,2,0,4,0.00
2013-6-3,74.9,63.3,49.8,57.4,52.5,46.1,87,69,52,29.92,29.79,3,1,9,0.00
2013-6-4,72.2,63.3,56.8,57.0,53.9,51.1,84,72,57,30.02,29.91,3,1,10,0.00
2013-6-5,69.3,62.0,55.9,55.9,53.3,51.0,86,74,60,30.06,29.97,3,1,6,0.00
2013-6-6,74.1,63.0,56.5,57.8,54.3,51.4,85,74,55,30.02,29.91,2,1,5,0.00
2013-6-7,86.1,68.8,56.6,63.1,57.6,52.1,86,70,45,29.96,29.78,2,0,3,0.00
2013-6-8,84.7,69.8,56.8,64.3,58.4,53.0,87,69,47,29.85,29.76,2,1,4,0.00
2013-6-9,78.7,66.1,57.3,60.8,56.2,52.1,87,72,52,29.93,29.85,2,1,13,0.00
2013-6-10,75.5,64.9,56.9,55.9,52.6,48.8,83,65,48,30.00,29.90,3,1,5,0.00
2013-6-11,74.4,64.2,58.2,57.7,54.3,49.3,83,71,54,30.05,29.95,2,0,7,0.00
2013-6-12,82.0,64.3,49.6,56.4,48.7,41.3,87,61,30,30.08,29.97,4,0,8,0.00
2013-6-13,80.5,64.7,47.2,53.7,47.2,41.9,87,57,27,30.15,30.05,3,1,9,0.00
2013-6-14,88.3,69.4,50.2,55.8,48.8,42.2,87,55,21,30.06,29.87,3,0,5,0.00
2013-6-15,71.7,61.5,50.3,55.3,50.4,46.6,87,69,48,30.08,29.90,3,1,6,0.00
2013-6-16,81.0,64.4,48.8,57.0,51.4,45.1,87,65,38,30.16,30.07,4,1,9,0.00
2013-6-17,77.9,63.9,51.1,57.5,52.9,47.1,87,69,48,30.17,30.10,3,1,7,0.00
2013-6-18,72.7,61.6,50.5,52.7,49.9,46.8,88,68,45,30.12,30.07,3,0,5,0.00
2013-6-19,76.8,63.8,52.3,52.4,48.0,44.2,82,58,39,30.12,30.06,3,1,7,0.00
2013-6-20,81.6,63.8,46.5,54.9,46.8,41.9,87,57,28,30.08,29.99,5,1,6,0.00
2013-6-21,84.2,65.8,50.1,56.4,48.8,44.7,87,58,29,30.05,29.97,3,1,5,0.00
2013-6-22,88.0,69.1,50.9,59.0,51.9,45.0,87,59,29,30.00,29.91,3,1,13,0.00
2013-6-23,71.9,64.9,57.5,61.2,57.3,52.9,86,77,66,29.95,29.87,2,0,6,0.00
2013-6-24,66.8,63.2,60.7,61.3,58.8,56.6,87,86,80,29.97,29.85,1,0,2,0.07
2013-6-25,79.2,68.9,61.7,66.1,61.6,57.8,87,78,62,30.04,29.95,2,0,9,0.01
2013-6-26,84.0,72.0,63.4,67.4,62.6,58.3,87,74,55,30.11,30.03,4,1,9,0.00
2013-6-27,88.2,73.5,59.0,64.7,59.2,54.8,87,64,36,30.13,30.06,4,1,7,0.00
2013-6-28,93.2,76.6,59.0,67.7,61.5,55.1,87,63,38,30.09,29.94,3,0,5,0.00
2013-6-29,97.7,77.9,59.0,66.8,59.7,54.5,87,58,29,29.99,29.85,3,1,7,0.00
2013-6-30,89.6,73.8,59.6,65.4,59.9,55.4,87,64,41,29.90,29.82,2,0,5,0.00
2013-7-1,90.7,73.3,59.4,65.7,60.1,55.0,87,66,41,29.90,29.86,2,0,5,0.00
2013-7-2,88.4,72.8,63.0,67.0,61.3,58.1,85,69,48,29.98,29.88,3,1,5,0.00
2013-7-3,89.5,72.5,61.5,66.8,61.1,56.8,87,69,44,29.97,29.81,2,0,5,0.00
2013-7-4,89.6,75.8,64.4,67.1,61.6,54.0,85,64,33,29.84,29.73,3,1,6,0.01
2013-7-5,78.7,65.9,57.8,57.9,54.1,51.0,82,67,46,29.87,29.77,2,1,5,0.00
2013-7-6,78.4,64.3,53.7,58.5,53.8,49.5,87,70,49,29.86,29.77,3,0,6,0.00
2013-7-7,76.8,66.1,58.5,59.3,56.0,52.8,85,71,54,29.92,29.83,3,1,5,0.00
2013-7-8,77.0,66.8,58.7,59.8,57.0,54.0,87,72,53,30.03,29.92,3,1,6,0.00
2013-7-9,84.6,69.4,57.6,63.5,58.5,53.8,89,70,45,30.08,29.97,3,0,5,0.00
2013-7-10,75.8,65.0,56.0,60.4,56.3,52.2,87,75,57,30.05,29.94,3,1,5,0.00
2013-7-11,72.8,63.9,57.7,58.3,55.0,52.5,85,74,59,30.01,29.93,3,1,6,0.00
2013-7-12,75.7,64.6,56.9,59.4,55.6,52.1,86,73,55,30.00,29.93,3,0,5,0.00
2013-7-13,80.3,65.8,51.5,60.8,55.1,47.8,88,71,46,30.02,29.94,3,1,6,0.00
2013-7-14,73.1,63.2,53.5,58.7,55.1,49.7,88,76,60,30.06,29.95,3,1,5,0.00
2013-7-15,72.4,62.4,56.5,57.5,54.0,51.7,85,75,58,29.99,29.88,3,0,7,0.00
2013-7-16,72.8,63.7,57.5,56.4,53.7,51.0,85,71,55,30.10,29.93,4,1,9,0.00
2013-7-17,73.5,63.9,56.0,58.8,55.1,51.6,85,74,59,30.16,30.08,3,1,6,0.00
2013-7-18,79.3,65.5,55.2,61.2,56.0,51.1,87,73,52,30.14,29.99,3,1,5,0.00
2013-7-19,78.7,65.7,56.9,60.7,56.3,52.8,87,73,53,30.02,29.88,2,1,6,0.00
2013-7-20,79.4,65.1,57.1,60.9,56.2,53.0,87,74,52,29.93,29.79,3,0,5,0.00
2013-7-21,78.0,65.9,58.0,60.5,56.9,53.7,86,74,55,29.94,29.83,3,1,5,0.00
2013-7-22,76.5,66.3,58.5,62.1,58.6,54.6,89,77,60,30.01,29.93,2,0,4,0.00
2013-7-23,78.4,68.0,61.8,63.6,59.2,57.2,86,75,56,30.05,30.00,2,0,5,0.00
2013-7-24,81.7,69.0,59.0,63.6,58.9,55.1,88,72,50,30.04,29.95,3,0,6,0.00
2013-7-25,77.0,66.1,55.8,61.2,57.4,52.1,88,75,55,30.09,30.00,3,1,6,0.00
2013-7-26,76.0,66.0,59.3,61.1,57.9,55.1,87,76,58,30.16,30.06,3,1,6,0.00
2013-7-27,74.9,65.5,59.1,61.4,57.9,54.8,86,77,62,30.10,29.92,3,1,5,0.00
2013-7-28,74.1,65.5,59.3,60.0,57.0,54.8,86,75,59,29.95,29.86,3,1,6,0.00
2013-7-29,77.5,64.8,51.9,58.9,54.8,48.2,88,71,52,30.07,29.90,2,0,5,0.00
2013-7-30,75.0,65.0,55.7,59.3,55.9,51.5,86,73,56,30.15,30.07,3,1,6,0.00
2013-7-31,77.6,65.6,55.5,59.8,54.5,48.1,85,69,44,30.14,30.07,3,1,10,0.00
2013-8-1,76.9,63.6,50.4,55.1,50.9,46.8,88,66,44,30.14,30.03,3,1,6,0.00
2013-8-2,77.4,63.4,49.4,59.1,52.9,46.0,88,70,43,30.05,29.95,3,1,7,0.00
2013-8-3,74.3,64.6,57.9,59.5,55.5,52.2,86,73,58,30.04,29.95,3,1,6,0.00
2013-8-4,72.0,63.2,57.5,58.1,55.3,52.6,86,76,61,30.07,30.00,3,0,6,0.00
2013-8-5,70.8,63.1,56.7,58.1,55.4,52.0,85,77,61,30.08,30.00,3,1,7,0.00
2013-8-6,75.7,63.9,57.9,59.3,55.0,52.8,86,74,51,30.10,30.03,2,0,4,0.00
2013-8-7,74.7,65.4,59.0,58.2,55.3,53.0,85,71,54,30.15,30.07,4,0,10,0.00
2013-8-8,72.7,64.2,56.3,59.2,55.6,51.5,86,75,60,30.09,29.98,3,0,5,0.00
2013-8-9,72.9,63.5,52.1,60.1,54.9,48.3,88,74,59,30.06,29.97,3,1,6,0.00
2013-8-10,74.7,64.8,59.0,61.1,56.7,53.5,87,76,61,30.11,30.04,3,1,7,0.00
2013-8-11,72.3,64.8,59.0,60.1,57.3,54.5,87,77,63,30.09,30.00,3,0,6,0.00
2013-8-12,78.7,66.6,58.3,61.7,57.7,54.1,87,75,54,30.05,29.98,2,0,6,0.00
2013-8-13,84.8,68.7,54.8,62.1,56.3,51.2,88,68,41,30.05,29.95,2,0,6,0.00
2013-8-14,83.9,67.7,54.0,60.8,56.9,50.5,88,70,39,30.05,29.97,4,1,9,0.00
2013-8-15,83.9,69.9,56.9,67.9,61.5,53.1,88,76,58,30.03,29.96,3,1,6,0.00
2013-8-16,83.8,71.3,62.7,66.9,61.2,53.9,88,72,46,30.04,29.98,3,1,4,0.00
2013-8-17,80.0,67.3,58.2,63.4,58.6,54.7,88,75,52,30.05,29.93,1,0,3,0.00
2013-8-18,90.9,72.5,60.1,66.3,60.9,56.3,88,70,42,29.95,29.81,2,0,5,0.00
2013-8-19,85.0,71.6,61.4,65.4,61.3,57.5,87,72,49,29.95,29.84,3,0,5,0.00
2013-8-20,80.1,69.4,61.4,63.4,59.5,54.9,88,72,53,29.95,29.86,3,1,5,0.00
2013-8-21,74.4,65.8,58.9,60.0,57.2,54.0,87,74,60,29.99,29.90,3,1,6,0.00
2013-8-22,73.3,64.9,56.7,59.2,55.8,52.2,87,73,58,30.03,29.93,3,1,5,0.00
2013-8-23,75.6,64.9,56.6,59.7,55.2,52.1,86,72,52,30.00,29.88,3,1,5,0.00
2013-8-24,81.9,67.3,53.2,63.6,57.1,49.7,88,72,47,29.97,29.90,4,1,7,0.00
2013-8-25,81.0,69.4,61.3,65.5,60.6,56.8,87,75,58,30.00,29.92,4,1,7,0.00
2013-8-26,78.4,67.9,58.4,61.0,56.3,49.8,86,68,47,30.06,29.96,3,1,7,0.00
2013-8-27,82.3,66.9,52.5,62.9,55.6,49.0,88,69,45,29.98,29.86,4,1,7,0.00
2013-8-28,80.4,68.2,56.0,65.2,59.7,52.3,88,75,56,30.01,29.91,3,1,6,0.00
2013-8-29,81.1,70.2,62.8,65.0,61.4,58.1,86,75,53,30.11,30.01,3,1,6,0.00
2013-8-30,89.2,73.3,60.5,67.3,60.3,53.8,88,67,36,30.10,29.96,3,0,7,0.00
2013-8-31,79.0,68.7,55.9,62.9,58.7,52.4,88,72,51,30.04,29.94,3,0,6,0.00
2013-9-1,80.9,69.6,60.4,62.1,58.7,56.3,87,70,45,30.01,29.92,3,0,4,0.00
2013-9-2,77.6,70.0,63.2,65.2,61.8,58.8,86,76,59,30.01,29.93,2,0,6,0.00
2013-9-3,83.4,68.4,54.4,59.3,55.7,50.9,88,67,37,30.06,29.99,3,0,10,0.00
2013-9-4,82.8,67.2,53.7,61.5,55.3,50.2,88,68,41,30.10,30.00,4,1,10,0.00
2013-9-5,82.3,66.9,54.2,59.8,54.8,50.6,88,68,39,30.08,30.01,3,0,5,0.00
2013-9-6,89.3,70.7,51.7,58.9,53.4,48.3,88,59,31,30.05,29.85,2,0,3,0.00
2013-9-7,94.8,73.0,54.9,62.3,54.4,48.7,82,57,24,29.93,29.83,2,0,5,0.00
2013-9-8,85.3,68.9,56.2,64.3,58.7,52.7,88,72,46,29.93,29.80,2,0,4,0.00
2013-9-9,86.6,69.0,56.4,65.7,59.5,52.9,88,74,46,29.87,29.75,2,0,6,0.00
2013-9-10,80.8,68.4,59.2,63.1,59.0,54.6,88,73,52,29.95,29.80,2,0,4,0.00
2013-9-11,76.7,65.9,54.4,61.0,56.7,50.9,88,73,57,30.04,29.94,3,0,7,0.00
2013-9-12,75.2,66.1,58.7,62.4,58.5,54.8,88,77,63,30.04,29.93,2,0,5,0.00
2013-9-13,75.0,65.9,59.3,61.3,57.3,53.5,87,75,56,29.98,29.83,2,0,5,0.00
2013-9-14,74.6,63.9,55.1,59.2,55.2,51.0,88,74,57,29.90,29.81,2,0,5,0.00
2013-9-15,77.9,64.8,53.0,60.5,55.8,49.3,88,74,53,29.93,29.86,3,0,6,0.00
2013-9-16,82.0,66.7,55.7,63.1,56.7,52.2,88,72,44,29.95,29.85,3,0,7,0.00
2013-9-17,77.3,63.9,54.5,57.4,53.1,49.7,88,70,44,29.95,29.90,4,0,8,0.00
2013-9-18,84.7,64.7,50.0,55.4,49.8,45.4,88,65,26,29.97,29.86,2,0,4,0.00
2013-9-21,64.7,60.2,53.9,60.0,55.7,50.4,88,85,75,29.97,29.88,0,0,1,0.38
2013-9-22,74.7,61.1,49.7,57.4,51.8,46.1,90,73,46,30.07,29.96,3,0,7,0.00
2013-9-23,81.3,65.6,50.5,60.1,54.2,47.1,89,69,43,30.08,29.97,2,0,5,0.00
2013-9-24,77.8,64.5,54.9,56.9,52.7,49.0,88,68,41,30.06,29.99,4,0,11,0.00
2013-9-25,70.7,61.2,52.4,50.4,47.7,44.8,85,63,41,30.01,29.90,4,1,9,0.00
2013-9-26,74.6,59.7,44.9,46.5,42.9,38.5,88,58,29,30.04,29.90,3,1,7,0.00
2013-9-27,78.3,61.4,43.8,47.6,42.1,39.3,88,54,26,30.16,30.04,2,0,4,0.00
2013-9-28,82.2,61.8,44.2,55.0,45.7,38.9,85,60,28,30.15,30.03,3,0,6,0.00
2013-9-29,76.7,64.0,51.1,60.8,55.4,47.7,88,75,54,30.17,30.09,3,0,7,0.00
2013-9-30,77.3,65.5,56.0,62.8,57.1,44.3,88,75,58,30.14,30.02,3,0,6,0.00
2013-10-1,72.3,61.2,48.8,53.2,49.0,44.3,89,66,46,30.08,29.97,3,0,7,0.00
2013-10-2,75.6,60.1,48.4,56.2,48.0,41.4,88,67,36,30.07,29.98,2,0,4,0.00
2013-10-3,73.8,59.1,44.8,46.9,41.3,36.0,86,56,28,30.14,30.00,3,0,6,0.00
2013-10-4,80.4,67.5,53.3,41.2,37.0,32.5,57,34,21,30.15,30.03,2,0,6,0.00
2013-10-5,84.8,63.5,45.4,42.5,38.4,35.8,72,44,19,30.26,30.14,2,0,3,0.00
2013-10-6,84.3,64.1,44.7,50.4,41.4,36.5,78,47,22,30.18,30.04,2,0,2,0.00
2013-10-7,82.9,63.7,47.2,49.8,40.1,31.1,72,46,18,30.05,29.91,2,0,5,0.00
2013-10-8,76.1,59.2,46.2,52.3,46.2,42.8,88,65,34,29.97,29.78,2,0,5,0.00
2013-10-9,68.9,56.2,46.2,48.6,44.8,41.1,88,68,43,29.82,29.70,2,0,4,0.00
2013-10-10,72.4,56.7,44.3,52.2,46.0,40.0,87,69,46,30.08,29.82,2,0,5,0.00
2013-10-11,66.4,54.5,45.7,53.9,48.0,42.4,92,79,63,30.15,30.04,2,0,5,0.00
2013-10-12,70.1,55.9,44.6,55.1,47.3,41.1,89,75,37,30.08,29.96,2,0,6,0.00
2013-10-13,73.4,57.1,44.0,51.3,45.1,40.7,89,68,37,30.12,30.00,2,0,4,0.00
2013-10-14,77.8,58.6,42.7,46.4,42.3,39.4,92,60,28,30.18,30.03,2,0,5,0.00
2013-10-15,79.5,59.8,43.3,45.8,40.1,37.7,84,54,25,30.11,29.98,1,0,4,0.00
2013-10-16,81.6,60.6,43.2,44.8,40.0,36.4,79,51,25,30.15,30.05,2,0,5,0.00
2013-10-17,81.0,60.6,43.7,47.3,40.5,36.2,82,52,23,30.14,30.00,2,0,4,0.00
2013-10-18,77.3,57.7,43.5,55.9,46.2,35.4,88,68,37,30.12,30.02,2,0,3,0.00
2013-10-19,79.6,59.2,44.6,57.1,48.3,41.3,92,71,36,30.14,30.03,1,0,5,0.00
2013-10-20,73.3,56.2,45.0,57.3,49.0,41.7,88,78,54,30.09,29.96,1,0,3,0.00
2013-10-21,69.2,56.3,46.3,55.1,49.6,42.9,88,79,60,30.07,29.96,2,0,3,0.00
2013-10-22,71.6,56.6,46.1,56.9,50.1,42.7,89,80,59,30.09,29.97,2,0,2,0.00
2013-10-23,65.3,55.6,49.7,55.6,50.5,46.3,89,83,70,30.05,29.95,1,0,4,0.00
2013-10-24,61.2,54.0,45.7,51.5,48.8,42.6,89,83,69,30.18,30.05,1,0,4,0.00
2013-10-25,68.9,53.5,41.7,54.3,46.6,38.4,90,79,54,30.24,30.13,1,0,3,0.00
2013-10-26,76.5,56.5,43.1,56.1,47.8,39.8,92,75,43,30.22,30.06,1,0,3,0.00
2013-10-27,64.9,54.0,44.0,52.0,47.0,40.7,89,78,59,30.10,29.78,2,0,4,0.00
2013-10-28,65.7,56.9,50.6,50.1,46.8,44.6,85,70,47,29.92,29.75,2,0,6,0.00
2013-10-29,66.0,55.2,45.0,50.3,47.3,41.2,87,75,51,30.12,29.92,0,0,1,0.00
2013-10-30,66.4,52.0,40.6,50.4,43.9,37.3,92,76,48,30.22,30.12,2,0,4,0.00
2013-10-31,71.9,54.2,40.3,50.1,43.7,37.0,89,71,40,30.25,30.11,1,0,3,0.00
2013-11-1,75.2,55.4,41.7,49.4,44.0,38.5,89,69,35,30.21,30.06,1,0,3,0.00
2013-11-2,69.5,53.9,42.4,54.1,46.4,39.1,88,77,55,30.10,29.97,2,0,4,0.00
2013-11-3,65.1,50.7,40.2,45.5,38.3,32.3,89,67,30,30.12,29.98,2,0,5,0.03
2013-11-4,66.8,50.4,37.0,44.0,36.1,33.1,88,62,30,30.13,29.99,2,0,4,0.00
2013-11-5,72.8,54.4,39.7,42.1,37.3,34.4,83,57,28,30.28,30.13,1,0,5,0.00
2013-11-6,72.5,55.3,41.0,46.7,40.5,36.1,86,61,30,30.32,30.20,1,0,3,0.00
2013-11-7,73.7,56.6,45.0,50.4,44.1,39.8,85,65,32,30.23,30.12,2,0,3,0.00
2013-11-8,71.8,55.3,44.3,54.5,46.9,41.0,88,75,48,30.16,30.01,2,0,3,0.00
2013-11-9,71.2,53.5,41.8,52.9,46.0,38.5,89,77,50,30.11,30.01,1,0,2,0.00
2013-11-10,63.7,52.2,43.8,52.6,46.7,40.5,92,82,65,30.19,30.10,1,0,4,0.00
2013-11-11,66.4,57.0,50.5,52.7,50.0,46.8,88,78,53,30.22,30.13,1,0,2,0.00
2013-11-12,71.1,58.5,47.8,54.0,49.4,43.4,87,74,46,30.32,30.21,1,0,3,0.00
2013-11-13,75.4,55.8,44.5,55.3,48.2,41.2,92,78,43,30.32,30.16,1,0,4,0.00
2013-11-14,63.3,55.0,47.6,54.6,49.9,44.2,88,83,71,30.19,29.96,2,0,4,0.00
2013-11-15,66.3,51.1,40.4,46.8,42.0,37.2,94,74,39,29.97,29.79,2,0,4,0.00
2013-11-16,63.4,49.8,39.5,49.5,42.9,36.2,92,79,54,30.00,29.86,2,0,4,0.00
2013-11-17,62.4,49.7,41.0,49.2,43.6,37.7,89,80,61,30.16,30.00,2,0,3,0.00
2013-11-18,64.0,49.9,40.8,49.5,43.8,37.5,89,80,53,30.22,30.14,1,0,4,0.00
2013-11-19,64.6,55.2,46.3,56.2,50.1,42.9,89,83,63,30.17,30.01,0,0,0,0.47
2013-11-20,61.0,55.7,49.2,57.7,52.0,45.7,89,88,87,30.01,29.91,2,0,2,0.54
2013-11-21,60.7,53.6,48.7,48.4,41.1,29.0,90,66,33,30.07,29.97,2,0,4,0.01
2013-11-22,67.4,51.2,37.1,37.8,31.6,24.2,82,52,21,30.12,29.96,2,0,4,0.00
2013-11-23,65.7,49.4,37.5,43.3,37.8,33.9,88,68,33,30.17,30.03,1,0,3,0.00
2013-11-24,64.1,47.5,37.0,45.3,39.8,33.8,89,77,47,30.32,30.17,1,0,3,0.00
2013-11-25,63.8,47.9,36.7,46.4,40.4,33.5,89,77,49,30.40,30.30,1,0,2,0.00
2013-11-26,63.4,50.0,40.4,48.6,42.6,37.1,89,77,50,30.33,30.09,1,0,2,0.00
2013-11-27,64.6,50.9,39.6,48.7,43.8,36.3,94,78,54,30.09,29.89,1,0,2,0.00
2013-11-28,67.7,52.5,43.4,47.9,44.0,39.8,92,75,45,30.15,29.93,1,0,3,0.00
2013-11-29,68.3,50.4,39.5,48.7,42.1,36.2,89,75,45,30.28,30.14,1,0,2,0.00
2013-11-30,64.8,49.5,39.4,51.8,42.9,36.1,89,79,49,30.33,30.24,2,0,4,0.00
2013-12-1,68.3,50.6,39.0,51.0,43.2,35.8,89,78,49,30.41,30.27,1,0,3,0.00
2013-12-2,62.6,49.2,39.0,52.6,44.4,35.8,94,84,69,30.30,30.05,1,0,5,0.00
2013-12-3,56.6,49.2,36.3,49.4,40.2,32.3,89,72,49,30.05,29.92,2,0,6,0.00
2013-12-4,51.9,39.1,29.6,32.5,27.8,22.3,88,67,33,30.16,30.02,2,0,4,0.00
2013-12-5,51.4,35.6,24.9,26.8,22.9,18.7,92,65,29,30.26,30.16,1,0,4,0.00
2013-12-6,55.6,42.1,28.0,46.6,34.3,24.9,89,76,46,30.28,29.99,2,0,6,0.23
2013-12-7,50.0,42.3,30.3,46.6,33.4,26.6,92,72,43,30.32,29.99,3,0,9,0.08
2013-12-8,45.9,34.9,26.6,28.8,25.6,22.1,89,71,43,30.42,30.30,1,0,3,0.01
2013-12-9,50.6,35.3,25.0,28.2,22.8,18.9,84,64,32,30.51,30.41,2,0,4,0.00
2013-12-10,53.0,37.2,26.1,32.3,27.7,22.3,89,71,42,30.50,30.28,1,0,2,0.00
2013-12-11,56.3,40.0,28.8,34.5,29.9,25.7,89,70,38,30.34,30.23,1,0,3,0.00
2013-12-12,59.0,40.8,28.4,40.2,31.7,25.6,89,73,38,30.35,30.22,1,0,2,0.00
2013-12-13,59.2,42.1,30.5,43.5,35.2,27.7,89,78,48,30.42,30.31,1,0,4,0.00
2013-12-14,60.2,43.5,31.5,42.4,34.9,28.6,95,74,44,30.48,30.36,2,0,3,0.00
2013-12-15,62.4,44.3,31.9,42.3,35.7,29.0,95,74,43,30.45,30.30,1,0,2,0.00
2013-12-16,67.4,48.0,35.3,42.9,36.9,32.0,92,69,36,30.31,30.17,1,0,2,0.00
2013-12-17,64.1,48.7,37.2,44.9,39.3,34.0,88,72,43,30.25,30.10,1,0,1,0.00
2013-12-18,60.4,48.1,39.1,48.1,42.3,35.9,92,81,58,30.10,29.87,1,0,2,0.00
2013-12-19,58.7,47.0,38.6,43.1,37.3,27.7,89,71,43,30.02,29.81,3,0,6,0.00
2013-12-20,61.2,44.2,30.4,31.0,24.8,16.4,83,52,18,30.10,30.00,1,0,3,0.00
2013-12-21,61.1,46.0,34.4,49.2,39.1,27.4,92,77,61,30.16,30.04,2,0,6,0.00
2013-12-22,68.7,48.9,36.0,46.5,38.3,32.8,92,71,34,30.35,30.16,1,0,2,0.00
2013-12-23,62.7,46.9,36.1,45.7,39.0,33.0,92,76,48,30.46,30.35,2,0,3,0.00
2013-12-24,70.2,48.3,36.3,46.8,38.9,33.4,89,73,39,30.41,30.26,1,0,2,0.00
2013-12-25,66.1,47.1,34.6,44.3,38.0,31.7,92,73,44,30.37,30.25,1,0,2,0.00
2013-12-26,67.9,47.0,34.2,45.0,38.0,31.2,89,74,38,30.34,30.21,1,0,2,0.00
2013-12-27,60.9,45.3,33.7,46.4,38.5,30.6,89,78,51,30.31,30.18,0,0,2,0.00
2013-12-28,67.0,45.7,33.3,43.4,34.2,30.2,89,69,32,30.23,30.08,1,0,3,0.00
2013-12-29,68.5,47.3,34.4,37.9,30.5,26.1,81,58,22,30.25,30.14,1,0,2,0.00
2013-12-30,64.6,45.4,31.9,39.2,34.1,28.6,88,68,38,30.34,30.24,1,0,4,0.00
2013-12-31,59.6,44.2,34.4,45.6,37.5,31.5,89,79,52,30.35,30.20,2,0,3,0.00
2014-1-1,62.5,44.9,32.6,45.6,37.5,29.6,89,77,51,30.30,30.17,1,0,2,0.00
2014-1-2,66.9,48.3,35.3,43.7,36.8,32.2,89,68,34,30.25,30.11,1,0,2,0.00